Location: Bailen
(14.1842°N, 120.7958°E)
Time: 18:43:05
(UTC+00:00)

USA 234 - Pass Details

Date: 12 January 2026
Orbit: 1102 x 1106 km, 123.0° (Epoch: 4 January)

Event Time Altitude Azimuth Distance (km) Brightness Sun altitude
Rises 21:50:31 0° 17° (NNE) 3,916 6.1 -8.5°
Reaches altitude 10° 21:53:30 10° 3° (N) 2,957 5.4 -7.8°
Maximum altitude 21:58:28 24° 314° (NW) 2,118 4.3 -6.7°
Drops below altitude 10° 22:03:25 10° 264° (W) 2,955 5.0 -5.6°
Sets 22:06:26 0° 250° (WSW) 3,911 5.7 -4.9°
